Location: Oriwa
(40.7500°S, 175.3333°E)
Time: 14:15:57
(UTC+00:00)

Cosmos 2123 Rocket - Pass Details

Date: 03 February 2023
Orbit: 962 x 990 km, 82.9° (Epoch: 30 March)

Event Time Altitude Azimuth Distance (km) Brightness Sun altitude
Rises 13:03:24 0° 192° (SSW) 3,724 8.0 -32.3°
Reaches altitude 10° 13:05:59 10° 196° (SSW) 2,765 7.1 -32.2°
Enters shadow 13:11:12 51° 238° (WSW) 1,219 4.5 -32.0°
